Tracking 29932 objects as of 4-Dec-2024
HD Live streaming from Space Station
objects crossing your sky now

STARLINK-32009

Track STARLINK-32009 now!
10-day predictions
STARLINK-32009 is classified as:


NORAD ID: 60104
Int'l Code: 2024-117P
Perigee: 481.5 km
Apogee: 483.2 km
Inclination: 53.2 °
Period: 94.1 minutes
Semi major axis: 6853 km
RCS: Unknown
Launch date: June 23, 2024
Source: United States (US)
Launch site: AIR FORCE EASTERN TEST RANGE (AFETR)
Your satellite tracking list
Your tracking list is empty




NASA's NSSDC Master Catalog

Two Line Element Set (TLE):
1 60104U 24117P   24338.83750196 -.00000417  00000-0 -19474-5 0  9999
2 60104  53.1607  18.0206 0001273  82.0587 278.0558 15.30197413 26327
Source of the keplerian elements: AFSPC